Comanche, TX

1:19 AM CDT on July 24, 2017 (GMT -0500)
Comanche

Weather History for KMKN - December, 2013

Change the Weather History Date:

Saturday, December 21, 2013

  Actual Average (KSEP) Record (KSEP)
Temperature  
Mean Temperature 47 °F -  
Max Temperature 61 °F 55 °F 86 °F (2010)
Min Temperature 33 °F 32 °F 10 °F (1924)
Degree Days  
Heating Degree Days 18    
Moisture  
Dew Point 39 °F    
Average Humidity 75    
Maximum Humidity 100    
Minimum Humidity 35    
Precipitation  
Precipitation 1.55 in - - ()
Sea Level Pressure  
Sea Level Pressure 29.68 in    
Wind  
Wind Speed 7 mph (WSW)    
Max Wind Speed 21 mph    
Max Gust Speed 30 mph    
Visibility 8 miles    
Events Rain , Snow , Thunderstorm    
Averages and records for this station are not official NWS values.
T = Trace of Precipitation, MM = Missing Value Source: NWS Daily Summary

Daily Weather History Graph

Daily Weather History Graph

Search for Another Location

Airport or City:

Trip Planner

Search our weather history database for the weather conditions in past years. The results will help you decide how hot, cold, wet, or windy it might be!

Date:

Astronomy

Dec. 21, 2013 Rise Set
Actual Time 7:30 AM CST 5:34 PM CST
Civil Twilight 7:03 AM CST 6:01 PM CST
Nautical Twilight 6:33 AM CST 6:32 PM CST
Astronomical Twilight 6:03 AM CST 7:01 PM CST
Moon 9:38 PM CST (12/21) 10:09 AM CST (12/21)
Length of Visible Light 10h 57m
Length of Day
10h 03m
Waning Gibbous, 84% of the Moon is Illuminated
Dec 21
Waning Gibbous
Dec 25
Last Quarter
Jan 1
New
Jan 7
First Quarter
Jan 15
Full

Hourly Weather History & Observations

Time (CST) Temp. Windchill Dew Point Humidity Pressure Visibility Wind Dir Wind Speed Gust Speed Precip Events Conditions
12:15 AM 33.3 °F 27.1 °F 33.3 °F 100% 29.80 in 4.0 mi NW 6.9 mph - N/A Rain , Thunderstorm Rain
12:35 AM 33.8 °F 26.4 °F 33.8 °F 100% 29.77 in 4.0 mi NNW 9.2 mph - 0.03 in Rain Rain
12:55 AM 33.8 °F - 33.8 °F 100% 29.80 in 1.2 mi Calm Calm - 0.13 in Snow , Thunderstorm Light Thunderstorms and Snow
1:15 AM 34.2 °F 27.5 °F 34.2 °F 100% 29.77 in 5.0 mi North 8.1 mph - 0.02 in Rain Light Rain
1:35 AM 34.7 °F 28.8 °F 34.7 °F 100% 29.80 in 7.0 mi WNW 6.9 mph - 0.02 in Rain , Thunderstorm Light Thunderstorms and Rain
1:55 AM 34.9 °F 28.3 °F 34.9 °F 100% 29.75 in 5.0 mi NNW 8.1 mph - 0.06 in Rain Rain
2:15 AM 35.2 °F 32.4 °F 35.2 °F 100% 29.77 in 5.0 mi West 3.5 mph - 0.03 in Rain , Thunderstorm Thunderstorms and Rain
2:35 AM 35.6 °F 32.8 °F 35.4 °F 99% 29.72 in 4.0 mi ENE 3.5 mph - 0.08 in Rain , Thunderstorm Light Thunderstorms and Rain
2:55 AM 35.6 °F - 35.6 °F 100% 29.71 in 5.0 mi Calm Calm - 0.08 in Rain , Thunderstorm Light Thunderstorms and Rain
3:15 AM 36.1 °F 31.4 °F 36.1 °F 100% 29.72 in 1.8 mi South 5.8 mph - 0.09 in Rain Heavy Rain
3:35 AM 37.2 °F - 37.2 °F 100% 29.69 in 3.0 mi Calm Calm - 0.16 in Rain Rain
3:55 AM 37.4 °F - 37.4 °F 100% 29.67 in 4.0 mi Calm Calm - 0.19 in Rain , Thunderstorm Rain
4:15 AM 37.6 °F 34.0 °F 37.6 °F 100% 29.65 in 4.0 mi ESE 4.6 mph - 0.03 in Rain Light Rain
4:35 AM 38.3 °F 35.9 °F 38.3 °F 100% 29.66 in 7.0 mi SSW 3.5 mph - 0.03 in   Overcast
4:55 AM 39.2 °F 35.9 °F 39.2 °F 100% 29.65 in 7.0 mi NNW 4.6 mph - 0.03 in Thunderstorm Overcast
5:15 AM 39.7 °F - 39.7 °F 100% 29.66 in 0.5 mi Calm Calm - 0.24 in Thunderstorm Unknown
5:35 AM 40.5 °F 38.4 °F 40.5 °F 100% 29.67 in 5.0 mi SW 3.5 mph - 0.26 in Rain Light Rain
5:55 AM 41.2 °F - 41.2 °F 100% 29.64 in 7.0 mi Calm Calm - 0.26 in   Overcast
6:15 AM 41.4 °F - 41.4 °F 100% 29.65 in 0.8 mi Calm Calm - 0.20 in Rain , Thunderstorm Light Thunderstorms and Rain
6:35 AM 41.9 °F - 41.9 °F 100% 29.65 in 2.0 mi Calm Calm - 0.37 in Rain , Thunderstorm Thunderstorms and Rain
6:55 AM 42.4 °F 39.6 °F 42.4 °F 100% 29.66 in 2.0 mi South 4.6 mph - 0.49 in Rain , Thunderstorm Rain
7:15 AM 43.2 °F 40.5 °F 43.2 °F 100% 29.61 in 7.0 mi North 4.6 mph - 0.02 in Rain Light Rain
7:35 AM 43.5 °F 40.1 °F 43.5 °F 100% 29.63 in 7.0 mi SE 5.8 mph - 0.04 in Rain , Thunderstorm Rain
7:55 AM 43.3 °F 39.9 °F 43.3 °F 100% 29.62 in 7.0 mi SE 5.8 mph - 0.05 in Rain Light Rain
8:15 AM 43.9 °F 41.3 °F 43.9 °F 100% 29.63 in 5.0 mi South 4.6 mph - 0.02 in Rain Rain
8:35 AM 44.2 °F 39.2 °F 44.2 °F 100% 29.63 in 5.0 mi SSE 9.2 mph - 0.07 in Rain , Thunderstorm Rain
8:55 AM 44.6 °F 39.7 °F 44.6 °F 100% 29.65 in 10.0 mi South 9.2 mph 16.1 mph 0.10 in Rain Rain
9:15 AM 45.1 °F 41.4 °F 45.1 °F 100% 29.64 in 10.0 mi SE 6.9 mph - 0.02 in Rain Light Rain
9:35 AM 45.5 °F 41.3 °F 45.5 °F 100% 29.64 in 10.0 mi SSE 8.1 mph - 0.03 in Rain Light Rain
9:55 AM 45.7 °F 41.5 °F 45.7 °F 100% 29.65 in 10.0 mi SSE 8.1 mph - 0.03 in   Overcast
10:15 AM 45.9 °F 40.4 °F 45.9 °F 100% 29.66 in 10.0 mi SSE 11.5 mph - 0.01 in   Drizzle
10:35 AM 46.4 °F 41.9 °F 46.4 °F 100% 29.70 in 5.0 mi West 9.2 mph - 0.08 in Rain Rain
10:55 AM 47.5 °F - 47.5 °F 100% 29.69 in 7.0 mi WSW 3.5 mph - 0.13 in Rain Light Rain
11:15 AM 49.8 °F - 49.8 °F 100% 29.67 in 10.0 mi South 4.6 mph - N/A   Overcast
11:35 AM 51.6 °F - 51.1 °F 98% 29.65 in 10.0 mi SW 6.9 mph - N/A   Overcast
11:55 AM 52.7 °F - 51.3 °F 95% 29.65 in 10.0 mi SW 9.2 mph - N/A   Mostly Cloudy
12:15 PM 54.0 °F - 52.0 °F 93% 29.65 in 10.0 mi SW 9.2 mph - N/A   Scattered Clouds
12:35 PM 56.1 °F - 50.5 °F 82% 29.64 in 10.0 mi WSW 13.8 mph 19.6 mph N/A   Scattered Clouds
12:55 PM 57.2 °F - 46.6 °F 68% 29.62 in 10.0 mi WSW 12.7 mph 21.9 mph N/A   Scattered Clouds
1:15 PM 58.5 °F - 43.2 °F 57% 29.62 in 10.0 mi WSW 19.6 mph 24.2 mph N/A   Clear
1:35 PM 59.4 °F - 43.0 °F 55% 29.60 in 10.0 mi WSW 16.1 mph 23.0 mph N/A   Clear
1:55 PM 60.1 °F - 41.0 °F 49% 29.60 in 10.0 mi WSW 19.6 mph 25.3 mph N/A   Clear
2:15 PM 60.8 °F - 36.9 °F 41% 29.59 in 10.0 mi West 17.3 mph 26.5 mph N/A   Scattered Clouds
2:35 PM 61.0 °F - 35.8 °F 39% 29.59 in 10.0 mi WSW 20.7 mph 29.9 mph N/A   Clear
2:55 PM 61.7 °F - 35.2 °F 37% 29.59 in 10.0 mi WSW 19.6 mph 26.5 mph N/A   Clear
3:15 PM 61.3 °F - 33.8 °F 36% 29.60 in 10.0 mi WSW 19.6 mph 29.9 mph N/A   Clear
3:35 PM 61.9 °F - 34.5 °F 36% 29.60 in 10.0 mi WSW 12.7 mph 24.2 mph N/A   Clear
3:55 PM 61.3 °F - 34.2 °F 36% 29.60 in 10.0 mi WSW 15.0 mph 25.3 mph N/A   Clear
4:15 PM 61.7 °F - 33.8 °F 35% 29.60 in 10.0 mi WSW 15.0 mph 18.4 mph N/A   Clear
4:35 PM 61.2 °F - 34.0 °F 36% 29.61 in 10.0 mi WSW 15.0 mph 24.2 mph N/A   Clear
4:55 PM 60.8 °F - 34.7 °F 38% 29.62 in 10.0 mi WSW 10.4 mph 17.3 mph N/A   Clear
5:15 PM 59.9 °F - 35.2 °F 40% 29.63 in 10.0 mi WSW 11.5 mph 17.3 mph N/A   Clear
5:35 PM 57.9 °F - 35.4 °F 43% 29.65 in 10.0 mi West 6.9 mph - N/A   Clear
5:55 PM 57.2 °F - 34.5 °F 43% 29.66 in 10.0 mi West 11.5 mph - N/A   Clear
6:15 PM 56.8 °F - 34.7 °F 43% 29.67 in 10.0 mi WSW 9.2 mph - N/A   Clear
6:35 PM 55.2 °F - 35.6 °F 48% 29.67 in 10.0 mi WSW 6.9 mph - N/A   Clear
6:55 PM 54.1 °F - 35.8 °F 50% 29.68 in 10.0 mi WSW 5.8 mph - N/A   Clear
7:15 PM 53.6 °F - 36.3 °F 52% 29.68 in 10.0 mi WSW 5.8 mph - N/A   Clear
7:35 PM 52.7 °F - 36.7 °F 55% 29.70 in 10.0 mi SW 8.1 mph - N/A   Clear
7:55 PM 52.9 °F - 37.0 °F 55% 29.70 in 10.0 mi WSW 11.5 mph - N/A   Clear
8:15 PM 53.6 °F - 37.0 °F 53% 29.71 in 10.0 mi WSW 10.4 mph - N/A   Clear
8:35 PM 54.0 °F - 36.9 °F 52% 29.72 in 10.0 mi WSW 8.1 mph - N/A   Clear
8:55 PM 53.8 °F - 37.0 °F 53% 29.73 in 10.0 mi WSW 10.4 mph 16.1 mph N/A   Clear
9:15 PM 54.9 °F - 36.7 °F 50% 29.73 in 10.0 mi WSW 11.5 mph 19.6 mph N/A   Clear
9:35 PM 54.1 °F - 37.0 °F 52% 29.74 in 10.0 mi WSW 10.4 mph - N/A   Clear
9:55 PM 53.4 °F - 36.9 °F 53% 29.74 in 10.0 mi WSW 9.2 mph - N/A   Clear
10:15 PM 52.9 °F - 36.7 °F 54% 29.75 in 10.0 mi WSW 11.5 mph 16.1 mph N/A   Clear
10:35 PM 52.7 °F - 36.5 °F 54% 29.75 in 10.0 mi WSW 11.5 mph - N/A   Clear
10:55 PM 52.9 °F - 36.3 °F 53% 29.76 in 10.0 mi WSW 12.7 mph 17.3 mph N/A   Clear
11:15 PM 53.1 °F - 36.0 °F 52% 29.77 in 10.0 mi WSW 11.5 mph - N/A   Clear
11:35 PM 53.2 °F - 35.8 °F 52% 29.77 in 10.0 mi West 12.7 mph 19.6 mph N/A   Clear
11:55 PM 53.1 °F - 35.6 °F 52% 29.77 in 10.0 mi West 13.8 mph 20.7 mph N/A   Clear